Location: Newark
(48.1500°N, 2.9667°W)
Time: 04:21:47
(UTC+00:00)

Transit 2A - Pass Details

Date: 02 February 2020
Orbit: 600 x 959 km, 66.7° (Epoch: 19 February)

Event Time Altitude Azimuth Distance (km) Brightness Sun altitude
Rises 16:43:51 0° 158° (SSE) 2,875 9.1 3.4°
Reaches altitude 10° 16:47:42 10° 123° (ESE) 1,946 7.9 2.8°
Maximum altitude 16:49:00 11° 106° (ESE) 1,864 7.6 2.6°
Drops below altitude 10° 16:50:19 10° 88° (E) 1,944 7.6 2.4°
Sets 16:54:09 0° 54° (NE) 2,865 8.3 1.9°
